User: anonymous   Login
Location: 22
(39.7117°N, 89.5929°W)
Time: 07:33:03
(UTC-05:00)
Language:

ARIANE 6 FM1 Upper Stage - Orbit

View from above orbital plane
View from above orbital plane
View from above satellite
View from above satellite

Ground track
Ground track

The orbit is defined by the following mean orbital elements,

1 60235U          26138.13110551 +.00000000 +00000-0 +12893-3 0 00002
2 60235  61.9949 335.7769 0054152 128.7501 231.8447 15.00984557    00
Epoch (UTC): 18 May 2026 03:08:47
Eccentricity: 0.0054152
inclination: 61.9949°
perigee height: 526 km
apogee height: 601 km
right ascension of ascending node: 335.7769°
argument of perigee: 128.7501°
revolutions per day: 15.00984557
mean anomaly at epoch: 231.8447°

The dashed part of the orbit path shows where the satellite is in the earth's shadow,  

DLR